Wind_Speed
37 36 34 33 34 34 34 33 33 35 34 33 31 29 29 31 31 30 29 28 27 26 27 25 25 27 27 27 27 27 28 29 31 30 29 27 26 26 26 28 29 29 30 30
42 41 37 36 37 37 36 35 36 36 38 37 37 33 31 33 35 33 32 31 31 31 31 31 29 27 30 31 29 30 30 31 32 32 32 29 30 29 28 28 29 28 30 32
46 44 41 41 41 40 38 38 39 38 41 41 41 39 36 36 36 36 35 35 35 35 36 35 34 31 30 33 35 34 33 32 33 35 35 32 32 32 31 31 31 31 30 31
50 48 46 45 43 42 41 39 41 42 43 45 43 45 43 39 38 39 39 39 39 40 39 38 36 36 36 36 37 38 36 35 36 38 35 36 34 33 33 32 31 31 31 31
51 50 48 46 45 45 44 42 43 45 46 47 45 48 42 40 40 41 43 43 42 41 41 39 39 39 40 40 40 39 39 39 39 41 38 36 37 36 34 33 34 34 33 32
53 54 50 49 48 47 47 45 45 47 48 50 47 46 48 45 42 41 41 43 43 42 41 40 38 38 38 38 40 41 42 43 45 44 39 38 38 38 37 37 38 37 34 33
53 52 51 49 49 49 49 49 48 49 50 50 50 50 46 53 47 43 42 43 43 42 42 41 39 38 39 40 42 43 44 47 49 47 40 38 38 39 40 40 39 37 36 35
52 54 50 49 49 46 45 46 48 51 52 51 52 54 49 51 51 47 44 45 46 44 44 41 38 36 38 40 43 44 46 49 48 47 41 37 38 38 38 40 39 37 37 37
53 53 52 46 44 46 49 52 48 51 54 57 58 56 55 51 51 51 48 48 45 44 42 39 38 38 39 41 44 47 48 49 47 46 41 39 39 37 38 38 38 39 39 39
51 53 53 53 56 55 52 50 50 54 57 58 60 57 51 49 49 49 47 47 46 45 43 40 39 40 42 44 47 49 49 45 45 44 41 41 40 38 38 39 39 40 40 39
49 58 60 58 53 56 56 56 53 53 54 55 55 54 50 49 51 52 52 51 51 51 51 49 47 48 47 45 44 44 42 41 43 43 42 42 40 40 41 41 40 39 38 38
52 55 54 55 50 48 54 55 56 58 57 53 51 51 50 54 56 56 56 56 53 52 51 50 49 45 39 37 37 40 41 40 40 43 44 43 42 43 44 44 42 42 42 42
37 42 41 44 46 47 50 51 54 58 59 58 56 55 58 58 60 59 60 56 57 54 52 51 45 40 38 38 41 41 42 43 44 45 45 44 44 45 45 46 47 47 45 44
41 41 44 49 51 50 52 52 52 55 57 55 53 54 54 61 63 62 61 57 55 54 54 49 45 44 44 45 43 43 43 44 45 45 44 46 48 49 48 47 46 45 45 46
39 38 35 32 41 46 50 51 50 52 54 57 46 49 52 54 52 50 46 48 51 51 50 48 48 47 49 46 44 45 44 44 45 45 45 46 47 48 49 48 48 49 50 52
51 41 45 38 30 27 32 34 36 38 41 44 44 43 46 46 48 47 49 50 50 49 52 51 53 51 52 50 47 47 48 49 50 49 49 49 49 50 52 52 54 54 56 58
42 40 43 49 49 42 36 32 33 33 32 33 39 47 54 51 52 53 54 56 56 57 56 54 52 50 48 48 50 51 52 54 56 57 55 52 52 53 55 57 59 60 60 61
43 43 48 55 53 56 47 44 46 46 42 38 36 39 43 46 46 49 54 55 56 55 55 54 51 47 49 52 55 57 64 62 59 64 66 63 63 63 64 66 66 67 68 68
54 57 57 57 56 54 56 57 51 48 49 48 47 43 45 45 49 51 52 52 52 51 50 46 46 47 48 53 54 57 60 63 70 71 71 70 69 67 65 64 64 65 65 65
55 57 58 56 54 52 52 48 50 48 51 49 43 43 46 48 51 52 51 52 52 50 50 50 51 52 53 53 54 56 59 61 64 69 70 69 70 71 72 74 75 74 72 70
56 56 55 54 52 50 47 47 46 45 45 42 43 44 44 45 47 46 46 45 48 49 53 54 52 51 53 53 55 55 56 60 65 68 71 71 71 71 69 66 66 68 68 67
52 51 51 49 49 50 45 42 43 41 40 40 39 39 42 46 47 48 49 48 47 47 49 50 50 52 54 53 54 55 57 59 60 61 62 65 66 67 67 67 68 66 64 65
50 49 47 46 42 43 44 45 44 43 41 40 41 42 42 44 46 47 47 49 52 54 56 57 58 59 61 63 63 63 65 66 67 68 69 69 69 71 72 71 67 62 63 63
49 49 48 47 47 46 46 47 47 47 47 48 48 49 50 50 52 53 55 57 58 59 61 63 65 66 67 67 68 69 70 72 74 75 75 73 72 72 70 62 57 58 61 58
51 50 50 50 50 50 51 52 51 52 53 53 53 55 56 57 58 60 61 64 65 66 67 67 68 69 70 71 72 72 72 71 72 73 72 73 76 70 65 64 56 49 44 47
50 51 52 51 53 54 54 56 57 56 56 57 58 60 62 63 64 66 68 70 70 71 72 71 71 71 71 72 73 73 73 70 69 73 78 78 73 70 68 63 61 54 51 50
Wind_Direction
240 240 242 246 245 244 243 242 241 244 241 240 241 242 244 241 241 244 247 251 255 262 269 277 282 291 293 291 300 307 310 316 323 317 308 292 282 282 288 291 293 288 282 282
242 241 243 245 247 247 247 246 244 244 246 244 244 244 243 244 246 243 247 253 258 262 269 276 281 287 287 288 292 298 306 307 315 315 306 299 284 284 285 288 289 287 281 282
244 244 246 246 247 249 249 250 251 249 250 249 249 248 244 245 249 251 251 252 258 262 267 274 282 285 284 286 290 294 298 300 306 307 304 294 286 283 285 285 283 282 281 281
245 244 246 249 250 252 253 253 254 254 252 254 254 254 247 246 250 256 257 258 258 261 265 273 278 280 283 282 283 286 288 293 297 303 295 292 283 282 282 281 280 279 278 278
245 247 249 250 253 254 252 250 253 255 255 255 256 260 261 257 253 253 259 259 260 263 267 272 275 275 276 279 281 283 286 288 293 297 291 285 279 276 280 279 275 275 276 277
240 245 244 247 247 249 254 254 253 254 256 256 258 260 266 267 264 261 258 262 265 268 270 270 270 271 274 277 280 282 284 288 293 296 285 275 273 272 274 273 272 272 273 274
245 245 244 244 248 250 251 252 253 254 256 260 260 258 263 268 271 273 272 271 271 268 266 267 267 269 270 272 275 278 282 288 293 291 277 270 269 268 270 269 270 272 273 274
241 239 246 247 248 252 253 254 255 257 257 256 256 260 259 265 268 270 271 269 271 273 273 273 272 271 270 271 272 277 283 287 288 284 276 264 264 265 266 267 267 270 272 274
246 245 245 252 252 251 251 250 253 256 257 257 255 256 260 262 267 271 272 272 271 270 271 273 272 270 269 270 271 276 282 285 280 277 272 261 260 262 263 266 268 270 272 274
242 244 243 245 248 246 248 250 250 250 253 254 258 260 261 266 265 262 266 272 275 276 277 276 277 276 274 272 273 276 278 273 271 270 268 266 264 267 268 269 270 270 271 272
242 243 246 248 255 253 246 248 251 256 257 259 261 260 264 265 265 265 269 273 274 277 281 279 280 278 279 278 275 272 268 264 260 264 267 267 267 267 267 265 265 267 270 273
241 245 249 251 254 253 251 250 250 251 254 257 259 259 260 263 268 270 274 277 279 281 280 280 283 283 278 275 270 262 262 263 261 259 259 262 264 265 266 267 267 268 270 269
248 250 250 247 252 255 254 255 254 254 254 253 255 259 259 263 268 272 274 274 277 275 276 278 277 275 275 273 269 267 266 266 263 259 260 263 265 265 266 266 266 266 266 265
237 242 248 250 256 257 255 258 258 257 257 259 259 262 264 266 266 268 271 271 268 269 270 267 267 269 268 270 271 273 273 269 267 267 268 268 268 267 264 265 266 265 264 264
236 233 231 239 246 249 251 255 257 257 258 259 260 260 260 261 267 263 264 262 261 263 266 266 268 269 270 273 274 274 274 273 267 268 271 269 267 266 267 266 266 268 272 274
259 257 233 231 244 237 246 247 251 255 263 262 257 256 256 252 252 255 258 263 264 265 266 267 268 268 269 273 275 274 274 275 274 270 269 270 268 266 266 268 271 274 277 278
270 262 257 249 247 252 243 231 236 235 238 245 250 252 253 254 254 256 259 260 262 266 268 268 267 269 272 272 272 273 272 272 272 271 270 267 267 268 270 272 273 275 276 278
238 242 256 267 266 261 255 255 256 257 255 253 247 245 247 250 250 252 255 259 262 264 266 266 266 266 266 266 268 269 266 272 271 268 269 273 275 274 273 276 278 280 282 283
237 245 254 256 262 267 265 267 269 268 268 267 265 257 245 245 250 253 254 257 259 260 261 263 266 269 269 268 268 268 266 266 261 260 263 271 278 280 282 283 283 283 282 282
247 249 253 256 258 261 265 263 269 274 274 275 272 268 265 263 266 265 263 261 260 262 264 268 270 269 273 279 280 278 275 272 270 271 274 276 277 278 279 279 281 283 283 282
248 250 253 255 257 258 259 259 258 260 267 265 269 270 270 270 270 272 273 275 277 279 281 283 284 284 283 281 282 281 279 280 281 282 282 282 281 280 280 282 283 282 278 279
246 248 248 248 251 255 255 254 257 257 254 256 258 260 262 265 268 270 272 272 271 272 273 275 276 278 279 279 277 277 278 278 277 277 278 280 278 277 278 278 278 277 277 278
240 242 244 247 249 250 252 253 254 256 257 257 259 261 261 263 266 268 269 273 275 278 278 278 278 279 281 282 281 282 282 282 280 278 278 277 277 277 277 277 278 281 278 277
235 238 240 244 247 249 251 253 255 258 260 262 265 269 271 271 274 276 278 278 279 280 281 281 282 282 283 284 283 282 281 282 282 281 281 279 280 280 281 280 278 277 275 273
237 240 244 247 249 252 255 259 261 263 266 269 272 276 279 280 281 283 283 283 284 285 285 285 285 285 284 283 282 281 280 278 278 277 275 278 281 281 274 277 272 270 272 265
240 245 248 252 254 255 259 263 264 267 271 274 276 278 281 283 284 285 286 286 286 286 286 286 285 282 278 276 276 276 276 277 276 273 275 277 278 276 272 268 264 259 263 257
Height
5791 5795 5800 5803 5805 5808 5810 5812 5816 5817 5820 5824 5827 5830 5833 5835 5838 5841 5842 5844 5846 5847 5847 5848 5848 5846 5846 5845 5845 5844 5843 5841 5838 5836 5834 5833 5833 5832 5830 5828 5827 5825 5823 5821
5784 5789 5793 5794 5797 5800 5803 5806 5808 5811 5812 5816 5818 5823 5827 5829 5831 5834 5837 5839 5840 5840 5840 5840 5842 5842 5838 5838 5838 5837 5836 5834 5832 5830 5828 5827 5826 5825 5824 5822 5820 5818 5816 5814
5776 5781 5783 5786 5788 5792 5796 5798 5801 5804 5803 5807 5810 5814 5819 5822 5824 5827 5829 5831 5832 5832 5832 5833 5834 5834 5832 5830 5828 5828 5829 5827 5825 5824 5821 5819 5818 5817 5816 5815 5813 5810 5809 5807
5764 5770 5774 5777 5782 5784 5788 5790 5792 5794 5797 5797 5801 5800 5809 5816 5818 5818 5821 5823 5824 5824 5825 5826 5826 5825 5824 5823 5822 5821 5820 5820 5818 5816 5813 5811 5810 5808 5808 5807 5805 5803 5801 5799
5757 5761 5766 5770 5774 5775 5779 5780 5782 5783 5786 5789 5793 5792 5799 5807 5809 5811 5811 5812 5814 5816 5816 5817 5817 5817 5815 5814 5813 5812 5810 5810 5810 5807 5804 5802 5800 5799 5798 5797 5795 5793 5792 5791
5743 5746 5754 5759 5762 5765 5768 5771 5773 5773 5776 5780 5786 5789 5786 5792 5797 5799 5803 5803 5804 5805 5806 5806 5805 5806 5805 5804 5803 5802 5801 5800 5799 5798 5794 5792 5790 5789 5788 5787 5785 5784 5783 5782
5733 5737 5742 5748 5752 5755 5759 5760 5761 5764 5766 5773 5774 5777 5783 5775 5783 5788 5789 5791 5792 5793 5794 5794 5796 5796 5796 5795 5793 5792 5790 5788 5786 5785 5783 5781 5779 5779 5778 5777 5776 5776 5775 5773
5721 5726 5731 5739 5742 5747 5749 5750 5752 5752 5754 5761 5761 5764 5773 5771 5771 5776 5778 5778 5778 5780 5781 5783 5783 5784 5785 5785 5783 5781 5780 5777 5775 5772 5772 5771 5769 5768 5768 5767 5766 5766 5765 5764
5712 5715 5722 5726 5730 5734 5736 5737 5745 5741 5744 5744 5748 5756 5758 5763 5763 5762 5764 5765 5767 5768 5768 5771 5773 5773 5774 5774 5773 5771 5768 5766 5763 5761 5760 5759 5758 5758 5757 5757 5757 5756 5755 5753
5699 5702 5707 5713 5716 5720 5722 5728 5729 5728 5731 5732 5736 5741 5750 5751 5748 5751 5752 5751 5753 5756 5757 5758 5759 5761 5762 5761 5761 5759 5756 5754 5752 5750 5750 5749 5748 5748 5748 5748 5747 5745 5744 5743
5688 5691 5695 5699 5704 5709 5712 5714 5717 5719 5722 5724 5729 5733 5736 5737 5735 5736 5738 5740 5741 5742 5743 5746 5748 5746 5745 5746 5746 5745 5744 5742 5741 5740 5739 5739 5738 5737 5737 5737 5735 5734 5734 5733
5675 5679 5683 5688 5692 5696 5698 5702 5705 5706 5710 5714 5719 5724 5725 5721 5720 5723 5725 5727 5730 5730 5731 5731 5732 5732 5732 5732 5732 5729 5729 5730 5730 5729 5728 5727 5727 5726 5726 5725 5725 5724 5723 5721
5666 5667 5671 5673 5678 5681 5683 5686 5690 5694 5696 5700 5706 5713 5710 5712 5710 5710 5713 5715 5716 5716 5717 5718 5720 5720 5720 5719 5718 5718 5718 5718 5718 5718 5718 5718 5717 5716 5716 5714 5714 5713 5712 5711
5654 5657 5660 5664 5665 5668 5670 5674 5678 5680 5682 5688 5694 5699 5701 5695 5698 5699 5700 5702 5703 5704 5704 5705 5707 5707 5706 5706 5708 5708 5708 5708 5708 5709 5709 5708 5707 5705 5703 5702 5702 5702 5701 5699
5645 5648 5650 5652 5655 5656 5657 5660 5663 5666 5670 5671 5684 5682 5681 5683 5685 5686 5688 5688 5688 5688 5692 5694 5694 5694 5693 5695 5695 5696 5697 5698 5698 5697 5696 5695 5694 5694 5693 5692 5691 5691 5689 5688
5631 5637 5640 5642 5646 5648 5649 5650 5652 5655 5656 5657 5665 5670 5669 5671 5671 5673 5674 5676 5677 5680 5680 5682 5681 5682 5681 5682 5684 5684 5683 5682 5684 5684 5683 5682 5682 5681 5680 5679 5679 5678 5677 5675
5621 5624 5629 5631 5633 5637 5643 5648 5645 5646 5647 5649 5654 5658 5658 5659 5659 5660 5661 5664 5665 5665 5665 5667 5668 5668 5668 5669 5670 5669 5668 5667 5667 5668 5667 5667 5667 5667 5666 5665 5663 5662 5659 5657
5612 5614 5615 5617 5622 5623 5634 5636 5636 5636 5636 5639 5643 5646 5646 5647 5645 5646 5649 5651 5652 5653 5652 5653 5653 5654 5655 5656 5655 5654 5654 5654 5653 5653 5651 5649 5649 5650 5649 5648 5646 5644 5642 5639
5601 5601 5603 5604 5607 5615 5620 5620 5622 5623 5625 5629 5631 5633 5635 5635 5635 5636 5638 5638 5639 5639 5639 5640 5640 5640 5641 5642 5641 5641 5640 5639 5638 5636 5635 5634 5632 5631 5629 5628 5625 5623 5621 5619
5587 5589 5590 5591 5595 5601 5606 5607 5606 5604 5612 5614 5617 5619 5621 5623 5621 5622 5624 5625 5625 5625 5626 5626 5626 5627 5627 5626 5625 5624 5624 5623 5621 5619 5617 5616 5615 5614 5613 5610 5608 5605 5601 5598
5573 5576 5577 5578 5579 5588 5593 5593 5593 5595 5604 5599 5601 5604 5606 5609 5610 5610 5610 5611 5611 5611 5610 5610 5611 5611 5610 5610 5609 5607 5606 5604 5603 5602 5601 5598 5596 5594 5591 5588 5586 5583 5581 5578
5561 5563 5564 5566 5568 5578 5581 5579 5580 5583 5584 5586 5587 5590 5592 5594 5595 5596 5597 5597 5597 5597 5596 5597 5597 5594 5593 5592 5591 5590 5589 5587 5585 5583 5581 5580 5577 5574 5571 5569 5566 5563 5561 5559
5547 5550 5554 5558 5563 5564 5565 5565 5567 5568 5569 5572 5574 5575 5578 5579 5579 5581 5583 5581 5580 5579 5579 5579 5579 5578 5576 5575 5573 5571 5568 5566 5565 5564 5562 5558 5555 5553 5551 5548 5545 5543 5542 5541
5533 5537 5540 5545 5550 5551 5551 5550 5551 5553 5556 5558 5560 5560 5561 5564 5564 5565 5565 5565 5565 5564 5562 5562 5561 5560 5558 5556 5553 5551 5548 5544 5541 5538 5536 5535 5534 5531 5530 5528 5527 5525 5524 5523
5522 5525 5530 5531 5534 5535 5534 5534 5537 5539 5540 5543 5545 5544 5544 5546 5547 5547 5548 5547 5547 5546 5544 5543 5541 5539 5536 5532 5529 5526 5524 5522 5519 5517 5515 5513 5512 5512 5512 5510 5511 5511 5508 5507
5511 5514 5515 5517 5516 5518 5519 5518 5520 5524 5527 5529 5529 5529 5528 5527 5529 5528 5530 5528 5527 5525 5521 5519 5517 5516 5513 5510 5507 5505 5502 5500 5498 5497 5495 5493 5491 5491 5491 5491 5490 5490 5490 5487